Year,Month,Day,Hour,Minute,Value (Times are PST for temperature in C)
2017,08,12,00,00,17.30
2017,08,12,00,01,17.30
2017,08,12,00,02,17.30
2017,08,12,00,03,17.30
2017,08,12,00,04,17.30
2017,08,12,00,05,17.30
2017,08,12,00,06,17.30
2017,08,12,00,07,17.20
2017,08,12,00,08,17.20
2017,08,12,00,09,17.20
2017,08,12,00,10,17.20
2017,08,12,00,11,17.20
2017,08,12,00,12,17.20
2017,08,12,00,13,17.20
2017,08,12,00,14,17.20
2017,08,12,00,15,17.10
2017,08,12,00,16,17.20
2017,08,12,00,17,17.10
2017,08,12,00,18,17.10
2017,08,12,00,19,17.10
2017,08,12,00,20,17.10
2017,08,12,00,21,17.10
2017,08,12,00,22,17.10
2017,08,12,00,23,17.10
2017,08,12,00,24,17.10
2017,08,12,00,25,17.00
2017,08,12,00,26,17.00
2017,08,12,00,27,17.00
2017,08,12,00,28,17.00
2017,08,12,00,29,17.00
2017,08,12,00,30,17.00
2017,08,12,00,31,17.00
2017,08,12,00,32,17.00
2017,08,12,00,33,17.00
2017,08,12,00,34,17.00
2017,08,12,00,35,17.00
2017,08,12,00,36,16.90
2017,08,12,00,37,16.90
2017,08,12,00,38,16.90
2017,08,12,00,39,16.90
2017,08,12,00,40,16.90
2017,08,12,00,41,16.90
2017,08,12,00,42,16.90
2017,08,12,00,43,16.90
2017,08,12,00,44,16.90
2017,08,12,00,45,16.90
2017,08,12,00,46,16.90
2017,08,12,00,47,16.90
2017,08,12,00,48,16.90
2017,08,12,00,49,16.90
2017,08,12,00,50,16.90
2017,08,12,00,51,16.90
2017,08,12,00,52,16.90
2017,08,12,00,53,16.90
2017,08,12,00,54,16.90
2017,08,12,00,55,16.90
2017,08,12,00,56,16.90
2017,08,12,00,57,16.90
2017,08,12,00,58,16.90
2017,08,12,00,59,16.90
2017,08,12,01,00,16.90
2017,08,12,01,01,16.90
2017,08,12,01,02,16.90
2017,08,12,01,03,16.90
2017,08,12,01,04,16.90
2017,08,12,01,05,16.90
2017,08,12,01,06,16.90
2017,08,12,01,07,16.90
2017,08,12,01,08,16.90
2017,08,12,01,09,16.90
2017,08,12,01,10,16.90
2017,08,12,01,11,16.90
2017,08,12,01,12,16.90
2017,08,12,01,13,16.90
2017,08,12,01,14,16.90
2017,08,12,01,15,16.90
2017,08,12,01,16,16.90
2017,08,12,01,17,16.90
2017,08,12,01,18,16.90
2017,08,12,01,19,16.90
2017,08,12,01,20,16.90
2017,08,12,01,21,16.90
2017,08,12,01,22,16.90
2017,08,12,01,23,16.90
2017,08,12,01,24,16.90
2017,08,12,01,25,16.90
2017,08,12,01,26,16.90
2017,08,12,01,27,16.90
2017,08,12,01,28,16.90
2017,08,12,01,29,16.90
2017,08,12,01,30,16.90
2017,08,12,01,31,16.90
2017,08,12,01,32,16.90
2017,08,12,01,33,16.90
2017,08,12,01,34,16.90
2017,08,12,01,35,16.90
2017,08,12,01,36,16.90
2017,08,12,01,37,16.90
2017,08,12,01,38,16.90
2017,08,12,01,39,16.90
2017,08,12,01,40,16.90
2017,08,12,01,41,16.90
2017,08,12,01,42,16.90
2017,08,12,01,43,16.90
2017,08,12,01,44,16.90
2017,08,12,01,45,16.90
2017,08,12,01,46,16.90
2017,08,12,01,47,16.90
2017,08,12,01,48,16.90
2017,08,12,01,49,16.90
2017,08,12,01,50,16.90
2017,08,12,01,51,16.90
2017,08,12,01,52,16.90
2017,08,12,01,53,17.00
2017,08,12,01,54,17.00
2017,08,12,01,55,17.00
2017,08,12,01,56,17.00
2017,08,12,01,57,17.00
2017,08,12,01,58,17.00
2017,08,12,01,59,17.00
2017,08,12,02,00,17.00
2017,08,12,02,01,17.00
2017,08,12,02,02,17.00
2017,08,12,02,03,17.00
2017,08,12,02,04,17.00
2017,08,12,02,05,17.00
2017,08,12,02,06,17.10
2017,08,12,02,07,17.10
2017,08,12,02,08,17.10
2017,08,12,02,09,17.10
2017,08,12,02,10,17.10
2017,08,12,02,11,17.10
2017,08,12,02,12,17.10
2017,08,12,02,13,17.10
2017,08,12,02,14,17.10
2017,08,12,02,15,17.10
2017,08,12,02,16,17.10
2017,08,12,02,17,17.10
2017,08,12,02,18,17.10
2017,08,12,02,19,17.10
2017,08,12,02,20,17.10
2017,08,12,02,21,17.10
2017,08,12,02,22,17.10
2017,08,12,02,23,17.10
2017,08,12,02,24,17.10
2017,08,12,02,25,17.10
2017,08,12,02,26,17.10
2017,08,12,02,27,17.10
2017,08,12,02,28,17.10
2017,08,12,02,29,17.20
2017,08,12,02,30,17.20
2017,08,12,02,31,17.20
2017,08,12,02,32,17.20
2017,08,12,02,33,17.20
2017,08,12,02,34,17.20
2017,08,12,02,35,17.20
2017,08,12,02,36,17.20
2017,08,12,02,37,17.20
2017,08,12,02,38,17.20
2017,08,12,02,39,17.20
2017,08,12,02,40,17.20
2017,08,12,02,41,17.20
2017,08,12,02,42,17.20
2017,08,12,02,43,17.20
2017,08,12,02,44,17.20
2017,08,12,02,45,17.20
2017,08,12,02,46,17.20
2017,08,12,02,47,17.20
2017,08,12,02,48,17.20
2017,08,12,02,49,17.20
2017,08,12,02,50,17.20
2017,08,12,02,51,17.20
2017,08,12,02,52,17.20
2017,08,12,02,53,17.30
2017,08,12,02,54,17.20
2017,08,12,02,55,17.20
2017,08,12,02,56,17.20
2017,08,12,02,57,17.20
2017,08,12,02,58,17.20
2017,08,12,02,59,17.20
2017,08,12,03,00,17.20
2017,08,12,03,01,17.20
2017,08,12,03,02,17.20
2017,08,12,03,03,17.20
2017,08,12,03,04,17.20
2017,08,12,03,05,17.20
2017,08,12,03,06,17.20
2017,08,12,03,07,17.20
2017,08,12,03,08,17.20
2017,08,12,03,09,17.20
2017,08,12,03,10,17.20
2017,08,12,03,11,17.20
2017,08,12,03,12,17.20
2017,08,12,03,13,17.20
2017,08,12,03,14,17.20
2017,08,12,03,15,17.20
2017,08,12,03,16,17.20
2017,08,12,03,17,17.20
2017,08,12,03,18,17.20
2017,08,12,03,19,17.20
2017,08,12,03,20,17.20
2017,08,12,03,21,17.20
2017,08,12,03,22,17.20
2017,08,12,03,23,17.20
2017,08,12,03,24,17.20
2017,08,12,03,25,17.20
2017,08,12,03,26,17.20
2017,08,12,03,27,17.20
2017,08,12,03,28,17.20
2017,08,12,03,29,17.20
2017,08,12,03,30,17.20
2017,08,12,03,31,17.20
2017,08,12,03,32,17.10
2017,08,12,03,33,17.10
2017,08,12,03,34,17.10
2017,08,12,03,35,17.10
2017,08,12,03,36,17.10
2017,08,12,03,37,17.10
2017,08,12,03,38,17.10
2017,08,12,03,39,17.10
2017,08,12,03,40,17.10
2017,08,12,03,41,17.10
2017,08,12,03,42,17.10
2017,08,12,03,43,17.10
2017,08,12,03,44,17.10
2017,08,12,03,45,17.10
2017,08,12,03,46,17.10
2017,08,12,03,47,17.10
2017,08,12,03,48,17.10
2017,08,12,03,49,17.00
2017,08,12,03,50,17.00
2017,08,12,03,51,17.00
2017,08,12,03,52,17.00
2017,08,12,03,53,17.00
2017,08,12,03,54,17.00
2017,08,12,03,55,17.00
2017,08,12,03,56,17.00
2017,08,12,03,57,17.00
2017,08,12,03,58,17.00
2017,08,12,03,59,17.00
2017,08,12,04,00,17.00
2017,08,12,04,01,17.00
2017,08,12,04,02,17.00
2017,08,12,04,03,17.00
2017,08,12,04,04,17.00
2017,08,12,04,05,17.00
2017,08,12,04,06,17.00
2017,08,12,04,07,17.00
2017,08,12,04,08,17.00
2017,08,12,04,09,17.00
2017,08,12,04,10,17.00
2017,08,12,04,11,17.00
2017,08,12,04,12,17.00
2017,08,12,04,13,17.00
2017,08,12,04,14,17.00
2017,08,12,04,15,17.00
2017,08,12,04,16,17.00
2017,08,12,04,17,17.00
2017,08,12,04,18,17.00
2017,08,12,04,19,17.00
2017,08,12,04,20,17.00
2017,08,12,04,21,17.00
2017,08,12,04,22,17.10
2017,08,12,04,23,17.10
2017,08,12,04,24,17.10
2017,08,12,04,25,17.10
2017,08,12,04,26,17.10
2017,08,12,04,27,17.00
2017,08,12,04,28,17.00
2017,08,12,04,29,17.00
2017,08,12,04,30,17.00
2017,08,12,04,31,17.00
2017,08,12,04,32,17.00
2017,08,12,04,33,17.10
2017,08,12,04,34,17.10
2017,08,12,04,35,17.10
2017,08,12,04,36,17.10
2017,08,12,04,37,17.00
2017,08,12,04,38,17.00
2017,08,12,04,39,17.00
2017,08,12,04,40,17.00
2017,08,12,04,41,17.00
2017,08,12,04,42,17.00
2017,08,12,04,43,17.00
2017,08,12,04,44,17.00
2017,08,12,04,45,16.90
2017,08,12,04,46,16.90
2017,08,12,04,47,16.90
2017,08,12,04,48,16.90
2017,08,12,04,49,16.90
2017,08,12,04,50,16.90
2017,08,12,04,51,16.90
2017,08,12,04,52,16.90
2017,08,12,04,53,16.90
2017,08,12,04,54,16.90
2017,08,12,04,55,16.90
2017,08,12,04,56,16.90
2017,08,12,04,57,16.90
2017,08,12,04,58,16.90
2017,08,12,04,59,16.80
2017,08,12,05,00,16.80
2017,08,12,05,01,16.80
2017,08,12,05,02,16.80
2017,08,12,05,03,16.80
2017,08,12,05,04,16.80
2017,08,12,05,05,16.80
2017,08,12,05,06,16.80
2017,08,12,05,07,16.80
2017,08,12,05,08,16.80
2017,08,12,05,09,16.80
2017,08,12,05,10,16.70
2017,08,12,05,11,16.70
2017,08,12,05,12,16.70
2017,08,12,05,13,16.70
2017,08,12,05,14,16.70
2017,08,12,05,15,16.70
2017,08,12,05,16,16.60
2017,08,12,05,17,16.60
2017,08,12,05,18,16.60
2017,08,12,05,19,16.60
2017,08,12,05,20,16.60
2017,08,12,05,21,16.60
2017,08,12,05,22,16.60
2017,08,12,05,23,16.60
2017,08,12,05,24,16.50
2017,08,12,05,25,16.50
2017,08,12,05,26,16.50
2017,08,12,05,27,16.50
2017,08,12,05,28,16.60
2017,08,12,05,29,16.60
2017,08,12,05,30,16.60
2017,08,12,05,31,16.60
2017,08,12,05,32,16.60
2017,08,12,05,33,16.60
2017,08,12,05,34,16.60
2017,08,12,05,35,16.60
2017,08,12,05,36,16.60
2017,08,12,05,37,16.70
2017,08,12,05,38,16.70
2017,08,12,05,39,16.70
2017,08,12,05,40,16.70
2017,08,12,05,41,16.70
2017,08,12,05,42,16.70
2017,08,12,05,43,16.70
2017,08,12,05,44,16.70
2017,08,12,05,45,16.70
2017,08,12,05,46,16.70
2017,08,12,05,47,16.80
2017,08,12,05,48,16.80
2017,08,12,05,49,16.80
2017,08,12,05,50,16.80
2017,08,12,05,51,16.80
2017,08,12,05,52,16.80
2017,08,12,05,53,16.80
2017,08,12,05,54,16.80
2017,08,12,05,55,16.80
2017,08,12,05,56,16.70
2017,08,12,05,57,16.70
2017,08,12,05,58,16.70
2017,08,12,05,59,16.70
2017,08,12,06,00,16.70
2017,08,12,06,01,16.70
2017,08,12,06,02,16.70
2017,08,12,06,03,16.70
2017,08,12,06,04,16.70
2017,08,12,06,05,16.70
2017,08,12,06,06,16.70
2017,08,12,06,07,16.70
2017,08,12,06,08,16.70
2017,08,12,06,09,16.70
2017,08,12,06,10,16.70
2017,08,12,06,11,16.70
2017,08,12,06,12,16.70
2017,08,12,06,13,16.70
2017,08,12,06,14,16.70
2017,08,12,06,15,16.70
2017,08,12,06,16,16.70
2017,08,12,06,17,16.70
2017,08,12,06,18,16.70
2017,08,12,06,19,16.70
2017,08,12,06,20,16.70
2017,08,12,06,21,16.70
2017,08,12,06,22,16.70
2017,08,12,06,23,16.70
2017,08,12,06,24,16.70
2017,08,12,06,25,16.70
2017,08,12,06,26,16.80
2017,08,12,06,27,16.80
2017,08,12,06,28,16.80
2017,08,12,06,29,16.80
2017,08,12,06,30,16.80
2017,08,12,06,31,16.80
2017,08,12,06,32,16.90
2017,08,12,06,33,16.90
2017,08,12,06,34,16.90
2017,08,12,06,35,16.90
2017,08,12,06,36,16.90
2017,08,12,06,37,16.90
2017,08,12,06,38,16.90
2017,08,12,06,39,16.90
2017,08,12,06,40,16.90
2017,08,12,06,41,16.90
2017,08,12,06,42,16.90
2017,08,12,06,43,16.90
2017,08,12,06,44,16.90
2017,08,12,06,45,16.90
2017,08,12,06,46,16.90
2017,08,12,06,47,16.90
2017,08,12,06,48,16.90
2017,08,12,06,49,16.90
2017,08,12,06,50,16.90
2017,08,12,06,51,16.90
2017,08,12,06,52,16.90
2017,08,12,06,53,16.90
2017,08,12,06,54,16.90
2017,08,12,06,55,16.90
2017,08,12,06,56,16.90
2017,08,12,06,57,17.00
2017,08,12,06,58,17.00
2017,08,12,06,59,17.00
2017,08,12,07,00,16.90
2017,08,12,07,01,16.90
2017,08,12,07,02,16.90
2017,08,12,07,03,16.90
2017,08,12,07,04,16.90
2017,08,12,07,05,16.90
2017,08,12,07,06,16.90
2017,08,12,07,07,16.90
2017,08,12,07,08,16.90
2017,08,12,07,09,17.00
2017,08,12,07,10,17.00
2017,08,12,07,11,17.00
2017,08,12,07,12,17.00
2017,08,12,07,13,17.10
2017,08,12,07,14,17.10
2017,08,12,07,15,17.00
2017,08,12,07,16,17.10
2017,08,12,07,17,17.10
2017,08,12,07,18,17.10
2017,08,12,07,19,17.10
2017,08,12,07,20,17.10
2017,08,12,07,21,17.10
2017,08,12,07,22,17.10
2017,08,12,07,23,17.10
2017,08,12,07,24,17.10
2017,08,12,07,25,17.10
2017,08,12,07,26,17.10
2017,08,12,07,27,17.10
2017,08,12,07,28,17.10
2017,08,12,07,29,17.10
2017,08,12,07,30,17.10
2017,08,12,07,31,17.20
2017,08,12,07,32,17.20
2017,08,12,07,33,17.20
2017,08,12,07,34,17.20
2017,08,12,07,35,17.20
2017,08,12,07,36,17.30
2017,08,12,07,37,17.30
2017,08,12,07,38,17.30
2017,08,12,07,39,17.30
2017,08,12,07,40,17.40
2017,08,12,07,41,17.40
2017,08,12,07,42,17.40
2017,08,12,07,43,17.50
2017,08,12,07,44,17.50
2017,08,12,07,45,17.60
2017,08,12,07,46,17.60
2017,08,12,07,47,17.60
2017,08,12,07,48,17.60
2017,08,12,07,49,17.70
2017,08,12,07,50,17.70
2017,08,12,07,51,17.70
2017,08,12,07,52,17.70
2017,08,12,07,53,17.70
2017,08,12,07,54,17.80
2017,08,12,07,55,17.80
2017,08,12,07,56,17.80
2017,08,12,07,57,17.80
2017,08,12,07,58,17.80
2017,08,12,07,59,17.80
2017,08,12,08,00,17.80
2017,08,12,08,01,17.80
2017,08,12,08,02,17.80
2017,08,12,08,03,17.80
2017,08,12,08,04,17.80
2017,08,12,08,05,17.80
2017,08,12,08,06,17.70
2017,08,12,08,07,17.70
2017,08,12,08,08,17.70
2017,08,12,08,09,17.70
2017,08,12,08,10,17.70
2017,08,12,08,11,17.60
2017,08,12,08,12,17.60
2017,08,12,08,13,17.60
2017,08,12,08,14,17.60
2017,08,12,08,15,17.60
2017,08,12,08,16,17.60
2017,08,12,08,17,17.50
2017,08,12,08,18,17.50
2017,08,12,08,19,17.50
2017,08,12,08,20,17.40
2017,08,12,08,21,17.40
2017,08,12,08,22,17.40
2017,08,12,08,23,17.40
2017,08,12,08,24,17.40
2017,08,12,08,25,17.40
2017,08,12,08,26,17.40
2017,08,12,08,27,17.40
2017,08,12,08,28,17.40
2017,08,12,08,29,17.40
2017,08,12,08,30,17.30
2017,08,12,08,31,17.30
2017,08,12,08,32,17.30
2017,08,12,08,33,17.30
2017,08,12,08,34,17.30
2017,08,12,08,35,17.30
2017,08,12,08,36,17.30
2017,08,12,08,37,17.30
2017,08,12,08,38,17.40
2017,08,12,08,39,17.40
2017,08,12,08,40,17.40
2017,08,12,08,41,17.40
2017,08,12,08,42,17.40
2017,08,12,08,43,17.40
2017,08,12,08,44,17.50
2017,08,12,08,45,17.50
2017,08,12,08,46,17.60
2017,08,12,08,47,17.60
2017,08,12,08,48,17.60
2017,08,12,08,49,17.60
2017,08,12,08,50,17.70
2017,08,12,08,51,17.70
2017,08,12,08,52,17.70
2017,08,12,08,53,17.70
2017,08,12,08,54,17.80
2017,08,12,08,55,17.80
2017,08,12,08,56,17.80
2017,08,12,08,57,17.80
2017,08,12,08,58,17.80
2017,08,12,08,59,17.80
2017,08,12,09,00,17.80
2017,08,12,09,01,17.80
2017,08,12,09,02,17.80
2017,08,12,09,03,17.80
2017,08,12,09,04,17.80
2017,08,12,09,05,17.80
2017,08,12,09,06,17.80
2017,08,12,09,07,17.80
2017,08,12,09,08,17.80
2017,08,12,09,09,17.70
2017,08,12,09,10,17.70
2017,08,12,09,11,17.70
2017,08,12,09,12,17.80
2017,08,12,09,13,17.80
2017,08,12,09,14,17.80
2017,08,12,09,15,17.80
2017,08,12,09,16,17.80
2017,08,12,09,17,17.80
2017,08,12,09,18,17.80
2017,08,12,09,19,17.90
2017,08,12,09,20,17.90
2017,08,12,09,21,17.90
2017,08,12,09,22,17.90
2017,08,12,09,23,17.90
2017,08,12,09,24,17.90
2017,08,12,09,25,18.00
2017,08,12,09,26,18.00
2017,08,12,09,27,18.00
2017,08,12,09,28,18.00
2017,08,12,09,29,18.00
2017,08,12,09,30,18.00
2017,08,12,09,31,18.00
2017,08,12,09,32,18.10
2017,08,12,09,33,18.10
2017,08,12,09,34,18.10
2017,08,12,09,35,18.10
2017,08,12,09,36,18.10
2017,08,12,09,37,18.10
2017,08,12,09,38,18.10
2017,08,12,09,39,18.20
2017,08,12,09,40,18.20
2017,08,12,09,41,18.20
2017,08,12,09,42,18.20
2017,08,12,09,43,18.20
2017,08,12,09,44,18.20
2017,08,12,09,45,18.20
2017,08,12,09,46,18.20
2017,08,12,09,47,18.20
2017,08,12,09,48,18.20
2017,08,12,09,49,18.20
2017,08,12,09,50,18.30
2017,08,12,09,51,18.30
2017,08,12,09,52,18.30
2017,08,12,09,53,18.30
2017,08,12,09,54,18.30
2017,08,12,09,55,18.30
2017,08,12,09,56,18.30
2017,08,12,09,57,18.30
2017,08,12,09,58,18.30
2017,08,12,09,59,18.20
2017,08,12,10,00,18.20
2017,08,12,10,01,18.20
2017,08,12,10,02,18.20
2017,08,12,10,03,18.20
2017,08,12,10,04,18.20
2017,08,12,10,05,18.20
2017,08,12,10,06,18.20
2017,08,12,10,07,18.20
2017,08,12,10,08,18.20
2017,08,12,10,09,18.20
2017,08,12,10,10,18.20
2017,08,12,10,11,18.20
2017,08,12,10,12,18.20
2017,08,12,10,13,18.20
2017,08,12,10,14,18.20
2017,08,12,10,15,18.20
2017,08,12,10,16,18.20
2017,08,12,10,17,18.20
2017,08,12,10,18,18.20
2017,08,12,10,19,18.20
2017,08,12,10,20,18.20
2017,08,12,10,21,18.20
2017,08,12,10,22,18.30
2017,08,12,10,23,18.30
2017,08,12,10,24,18.30
2017,08,12,10,25,18.30
2017,08,12,10,26,18.30
2017,08,12,10,27,18.30
2017,08,12,10,28,18.30
2017,08,12,10,29,18.30
2017,08,12,10,30,18.30
2017,08,12,10,31,18.30
2017,08,12,10,32,18.30
2017,08,12,10,33,18.30
2017,08,12,10,34,18.30
2017,08,12,10,35,18.30
2017,08,12,10,36,18.30
2017,08,12,10,37,18.20
2017,08,12,10,38,18.20
2017,08,12,10,39,18.20
2017,08,12,10,40,18.20
2017,08,12,10,41,18.20
2017,08,12,10,42,18.30
2017,08,12,10,43,18.30
2017,08,12,10,44,18.30
2017,08,12,10,45,18.30
2017,08,12,10,46,18.30
2017,08,12,10,47,18.30
2017,08,12,10,48,18.30
2017,08,12,10,49,18.30
2017,08,12,10,50,18.30
2017,08,12,10,51,18.30
2017,08,12,10,52,18.20
2017,08,12,10,53,18.20
2017,08,12,10,54,18.20
2017,08,12,10,55,18.20
2017,08,12,10,56,18.20
2017,08,12,10,57,18.30
2017,08,12,10,58,18.30
2017,08,12,10,59,18.40
2017,08,12,11,00,18.50
2017,08,12,11,01,18.60
2017,08,12,11,02,18.70
2017,08,12,11,03,18.80
2017,08,12,11,04,18.90
2017,08,12,11,05,18.90
2017,08,12,11,06,19.00
2017,08,12,11,07,19.10
2017,08,12,11,08,19.20
2017,08,12,11,09,19.20
2017,08,12,11,10,19.30
2017,08,12,11,11,19.40
2017,08,12,11,12,19.50
2017,08,12,11,13,19.60
2017,08,12,11,14,19.70
2017,08,12,11,15,19.80
2017,08,12,11,16,19.90
2017,08,12,11,17,19.90
2017,08,12,11,18,20.00
2017,08,12,11,19,20.10
2017,08,12,11,20,20.10
2017,08,12,11,21,20.20
2017,08,12,11,22,20.30
2017,08,12,11,23,20.40
2017,08,12,11,24,20.40
2017,08,12,11,25,20.40
2017,08,12,11,26,20.40
2017,08,12,11,27,20.40
2017,08,12,11,28,20.30
2017,08,12,11,29,20.30
2017,08,12,11,30,20.30
2017,08,12,11,31,20.40
2017,08,12,11,32,20.40
2017,08,12,11,33,20.50
2017,08,12,11,34,20.50
2017,08,12,11,35,20.50
2017,08,12,11,36,20.60
2017,08,12,11,37,20.60
2017,08,12,11,38,20.70
2017,08,12,11,39,20.70
2017,08,12,11,40,20.80
2017,08,12,11,41,20.80
2017,08,12,11,42,20.80
2017,08,12,11,43,20.70
2017,08,12,11,44,20.70
2017,08,12,11,45,20.60
2017,08,12,11,46,20.60
2017,08,12,11,47,20.50
2017,08,12,11,48,20.50
2017,08,12,11,49,20.40
2017,08,12,11,50,20.40
2017,08,12,11,51,20.40
2017,08,12,11,52,20.40
2017,08,12,11,53,20.40
2017,08,12,11,54,20.40
2017,08,12,11,55,20.30
2017,08,12,11,56,20.20
2017,08,12,11,57,20.20
2017,08,12,11,58,20.20
2017,08,12,11,59,20.20
2017,08,12,12,00,20.20
2017,08,12,12,01,20.20
2017,08,12,12,02,20.30
2017,08,12,12,03,20.40
2017,08,12,12,04,20.60
2017,08,12,12,05,20.70
2017,08,12,12,06,20.90
2017,08,12,12,07,21.00
2017,08,12,12,08,21.20
2017,08,12,12,09,21.30
2017,08,12,12,10,21.50
2017,08,12,12,11,21.60
2017,08,12,12,12,21.80
2017,08,12,12,13,21.80
2017,08,12,12,14,22.00
2017,08,12,12,15,22.10
2017,08,12,12,16,22.20
2017,08,12,12,17,22.30
2017,08,12,12,18,22.40
2017,08,12,12,19,22.40
2017,08,12,12,20,22.40
2017,08,12,12,21,22.50
2017,08,12,12,22,22.40
2017,08,12,12,23,22.40
2017,08,12,12,24,22.50
2017,08,12,12,25,22.60
2017,08,12,12,26,22.60
2017,08,12,12,27,22.70
2017,08,12,12,28,22.70
2017,08,12,12,29,22.80
2017,08,12,12,30,22.80
2017,08,12,12,31,22.80
2017,08,12,12,32,22.80
2017,08,12,12,33,22.70
2017,08,12,12,34,22.60
2017,08,12,12,35,22.60
2017,08,12,12,36,22.50
2017,08,12,12,37,22.40
2017,08,12,12,38,22.40
2017,08,12,12,39,22.40
2017,08,12,12,40,22.30
2017,08,12,12,41,22.30
2017,08,12,12,42,22.30
2017,08,12,12,43,22.20
2017,08,12,12,44,22.20
2017,08,12,12,45,22.20
2017,08,12,12,46,22.20
2017,08,12,12,47,22.20
2017,08,12,12,48,22.30
2017,08,12,12,49,22.30
2017,08,12,12,50,22.40
2017,08,12,12,51,22.40
2017,08,12,12,52,22.50
2017,08,12,12,53,22.50
2017,08,12,12,54,22.50
2017,08,12,12,55,22.40
2017,08,12,12,56,22.40
2017,08,12,12,57,22.30
2017,08,12,12,58,22.20
2017,08,12,12,59,22.20
2017,08,12,13,00,22.10
2017,08,12,13,01,22.00
2017,08,12,13,02,21.90
2017,08,12,13,03,21.80
2017,08,12,13,04,21.80
2017,08,12,13,05,21.80
2017,08,12,13,06,21.70
2017,08,12,13,07,21.70
2017,08,12,13,08,21.60
2017,08,12,13,09,21.50
2017,08,12,13,10,21.50
2017,08,12,13,11,21.40
2017,08,12,13,12,21.40
2017,08,12,13,13,21.30
2017,08,12,13,14,21.30
2017,08,12,13,15,21.30
2017,08,12,13,16,21.20
2017,08,12,13,17,21.20
2017,08,12,13,18,21.20
2017,08,12,13,19,21.10
2017,08,12,13,20,21.00
2017,08,12,13,21,21.00
2017,08,12,13,22,20.90
2017,08,12,13,23,20.80
2017,08,12,13,24,20.80
2017,08,12,13,25,20.80
2017,08,12,13,26,20.70
2017,08,12,13,27,20.70
2017,08,12,13,28,20.70
2017,08,12,13,29,20.60
2017,08,12,13,30,20.60
2017,08,12,13,31,20.50
2017,08,12,13,32,20.40
2017,08,12,13,33,20.40
2017,08,12,13,34,20.40
2017,08,12,13,35,20.50
2017,08,12,13,36,20.60
2017,08,12,13,37,20.70
2017,08,12,13,38,20.70
2017,08,12,13,39,20.70
2017,08,12,13,40,20.80
2017,08,12,13,41,20.80
2017,08,12,13,42,20.80
2017,08,12,13,43,20.80
2017,08,12,13,44,20.90
2017,08,12,13,45,20.90
2017,08,12,13,46,20.90
2017,08,12,13,47,20.90
2017,08,12,13,48,20.90
2017,08,12,13,49,21.00
2017,08,12,13,50,21.10
2017,08,12,13,51,21.10
2017,08,12,13,52,21.10
2017,08,12,13,53,21.10
2017,08,12,13,54,21.10
2017,08,12,13,55,21.20
2017,08,12,13,56,21.20
2017,08,12,13,57,21.20
2017,08,12,13,58,21.30
2017,08,12,13,59,21.30
2017,08,12,14,00,21.40
2017,08,12,14,01,21.40
2017,08,12,14,02,21.50
2017,08,12,14,03,21.60
2017,08,12,14,04,21.60
2017,08,12,14,05,21.60
2017,08,12,14,06,21.60
2017,08,12,14,07,21.60
2017,08,12,14,08,21.60
2017,08,12,14,09,21.60
2017,08,12,14,10,21.60
2017,08,12,14,11,21.60
2017,08,12,14,12,21.60
2017,08,12,14,13,21.60
2017,08,12,14,14,21.70
2017,08,12,14,15,21.80
2017,08,12,14,16,21.80
2017,08,12,14,17,21.90
2017,08,12,14,18,22.10
2017,08,12,14,19,22.20
2017,08,12,14,20,22.40
2017,08,12,14,21,22.60
2017,08,12,14,22,22.70
2017,08,12,14,23,22.90
2017,08,12,14,24,23.00
2017,08,12,14,25,23.10
2017,08,12,14,26,23.20
2017,08,12,14,27,23.20
2017,08,12,14,28,23.20
2017,08,12,14,29,23.20
2017,08,12,14,30,23.20
2017,08,12,14,31,23.20
2017,08,12,14,32,23.30
2017,08,12,14,33,23.30
2017,08,12,14,34,23.40
2017,08,12,14,35,23.50
2017,08,12,14,36,23.50
2017,08,12,14,37,23.60
2017,08,12,14,38,23.60
2017,08,12,14,39,23.60
2017,08,12,14,40,23.50
2017,08,12,14,41,23.50
2017,08,12,14,42,23.50
2017,08,12,14,43,23.40
2017,08,12,14,44,23.40
2017,08,12,14,45,23.40
2017,08,12,14,46,23.40
2017,08,12,14,47,23.40
2017,08,12,14,48,23.50
2017,08,12,14,49,23.50
2017,08,12,14,50,23.60
2017,08,12,14,51,23.60
2017,08,12,14,52,23.70
2017,08,12,14,53,23.80
2017,08,12,14,54,23.80
2017,08,12,14,55,23.80
2017,08,12,14,56,23.80
2017,08,12,14,57,23.90
2017,08,12,14,58,23.90
2017,08,12,14,59,23.90
2017,08,12,15,00,23.80
2017,08,12,15,01,23.80
2017,08,12,15,02,23.80
2017,08,12,15,03,23.80
2017,08,12,15,04,23.70
2017,08,12,15,05,23.70
2017,08,12,15,06,23.70
2017,08,12,15,07,23.70
2017,08,12,15,08,23.70
2017,08,12,15,09,23.70
2017,08,12,15,10,23.60
2017,08,12,15,11,23.50
2017,08,12,15,12,23.50
2017,08,12,15,13,23.50
2017,08,12,15,14,23.50
2017,08,12,15,15,23.50
2017,08,12,15,16,23.50
2017,08,12,15,17,23.40
2017,08,12,15,18,23.40
2017,08,12,15,19,23.40
2017,08,12,15,20,23.40
2017,08,12,15,21,23.40
2017,08,12,15,22,23.30
2017,08,12,15,23,23.30
2017,08,12,15,24,23.30
2017,08,12,15,25,23.40
2017,08,12,15,26,23.40
2017,08,12,15,27,23.40
2017,08,12,15,28,23.40
2017,08,12,15,29,23.40
2017,08,12,15,30,23.40
2017,08,12,15,31,23.40
2017,08,12,15,32,23.30
2017,08,12,15,33,23.30
2017,08,12,15,34,23.20
2017,08,12,15,35,23.20
2017,08,12,15,36,23.10
2017,08,12,15,37,23.00
2017,08,12,15,38,22.90
2017,08,12,15,39,22.80
2017,08,12,15,40,22.80
2017,08,12,15,41,22.80
2017,08,12,15,42,22.80
2017,08,12,15,43,22.80
2017,08,12,15,44,22.80
2017,08,12,15,45,22.80
2017,08,12,15,46,22.80
2017,08,12,15,47,22.80
2017,08,12,15,48,22.80
2017,08,12,15,49,22.80
2017,08,12,15,50,22.80
2017,08,12,15,51,22.80
2017,08,12,15,52,22.70
2017,08,12,15,53,22.70
2017,08,12,15,54,22.60
2017,08,12,15,55,22.60
2017,08,12,15,56,22.50
2017,08,12,15,57,22.50
2017,08,12,15,58,22.40
2017,08,12,15,59,22.40
2017,08,12,16,00,22.40
2017,08,12,16,01,22.40
2017,08,12,16,02,22.30
2017,08,12,16,03,22.30
2017,08,12,16,04,22.30
2017,08,12,16,05,22.30
2017,08,12,16,06,22.30
2017,08,12,16,07,22.30
2017,08,12,16,08,22.30
2017,08,12,16,09,22.30
2017,08,12,16,10,22.30
2017,08,12,16,11,22.20
2017,08,12,16,12,22.20
2017,08,12,16,13,22.20
2017,08,12,16,14,22.20
2017,08,12,16,15,22.20
2017,08,12,16,16,22.10
2017,08,12,16,17,22.10
2017,08,12,16,18,22.10
2017,08,12,16,19,22.10
2017,08,12,16,20,22.10
2017,08,12,16,21,22.00
2017,08,12,16,22,22.00
2017,08,12,16,23,22.10
2017,08,12,16,24,22.00
2017,08,12,16,25,22.00
2017,08,12,16,26,22.00
2017,08,12,16,27,22.00
2017,08,12,16,28,22.00
2017,08,12,16,29,22.00
2017,08,12,16,30,21.90
2017,08,12,16,31,21.90
2017,08,12,16,32,21.80
2017,08,12,16,33,21.80
2017,08,12,16,34,21.80
2017,08,12,16,35,21.80
2017,08,12,16,36,21.70
2017,08,12,16,37,21.70
2017,08,12,16,38,21.60
2017,08,12,16,39,21.60
2017,08,12,16,40,21.50
2017,08,12,16,41,21.40
2017,08,12,16,42,21.40
2017,08,12,16,43,21.40
2017,08,12,16,44,21.40
2017,08,12,16,45,21.30
2017,08,12,16,46,21.30
2017,08,12,16,47,21.30
2017,08,12,16,48,21.30
2017,08,12,16,49,21.20
2017,08,12,16,50,21.20
2017,08,12,16,51,21.20
2017,08,12,16,52,21.20
2017,08,12,16,53,21.10
2017,08,12,16,54,21.10
2017,08,12,16,55,21.10
2017,08,12,16,56,21.10
2017,08,12,16,57,21.10
2017,08,12,16,58,21.10
2017,08,12,16,59,21.10
2017,08,12,17,00,21.10
2017,08,12,17,01,21.10
2017,08,12,17,02,21.10
2017,08,12,17,03,21.10
2017,08,12,17,04,21.00
2017,08,12,17,05,21.00
2017,08,12,17,06,21.00
2017,08,12,17,07,21.00
2017,08,12,17,08,20.90
2017,08,12,17,09,20.90
2017,08,12,17,10,20.90
2017,08,12,17,11,20.90
2017,08,12,17,12,20.80
2017,08,12,17,13,20.80
2017,08,12,17,14,20.80
2017,08,12,17,15,20.80
2017,08,12,17,16,20.80
2017,08,12,17,17,20.80
2017,08,12,17,18,20.80
2017,08,12,17,19,20.70